STARLINK-36140

Last updated on Fri Dec 19 2025 00:02:09 GMT+0000 (Coordinated Universal Time)

1 67034U 25294E 25351.83335648 -.01294426 49917-3 -32035-2 0 9996 2 67034 42.9999 151.3090 0001715 275.5249 130.0295 15.95065160 2124
UTC large
Height (km)
Speed (km/s)
/
Latitude / Longitude
Inclination (degrees)
Orbital Period (minutes)
Azimuth
Elevation
Range (km)
Doppler Factor

Next 0 passes for location: London (51.5072 / 0.1276)

Sorry there are no passes over London.